Flag for U.S.A. Weather past 2 weeks in Bakersfield, California, U.S.A.

Now
81 °F

Sunny.


Feels Like: 80 °F
Forecast: 58 / 81 °F
Wind: 10 mph from Northwest

Location: Meadows Field


UV Index: 5 (Moderate)

Visibility: 10 mi


Pressure: 29.78 "Hg

Humidity: 29%

Dew point: 46 °F

Location of BakersfieldLocation

Historic Weather in Bakersfield

°F

Bakersfield temperature yesterday

Maximum temperature yesterday: 86 °F (at 1:54 PM)
Minimum temperature yesterday: 62 °F (at 4:54 AM)
Average temperature yesterday: 74 °F

Past Weeks' High & Low Weather Summary

 TemperatureHumidityPressure
High92 °F (Apr 8, 3:54 PM)77% (Apr 5, 6:54 AM)30.21 "Hg (Apr 5, 6:54 AM)
Low49 °F (Apr 5, 4:54 AM)8% (Apr 9, 3:54 PM)29.71 "Hg (Apr 11, 5:54 PM)
Average70 °F39%29.94 "Hg
* Reported Apr 3 4:54 PM — Apr 18 4:54 PM, Bakersfield, Weather by CustomWeather, © 2014

Note: Actual official high and low records may vary slightly from our data, if they occured in-between our weather recording intervals... More about our weather records

Advertising

Historic Weather Conditions — Data for Previous 24 hours

 ConditionsComfort  
Time TempWeatherWind HumidityBarometerVisibility
4:54 PM
Apr 18
80 °FSunny.9 mph29%29.78 "Hg10 mi
3:54 PM81 °FSunny.10 mph27%29.79 "Hg10 mi
2:54 PM79 °FSunny.7 mph29%29.82 "Hg10 mi
1:54 PM75 °FSunny.6 mph33%29.84 "Hg10 mi
12:54 PM75 °FSunny.7 mph33%29.86 "Hg10 mi
11:54 AM72 °FSunny.7 mph38%29.88 "Hg10 mi
10:54 AM70 °FSunny.6 mph38%29.89 "Hg10 mi
9:54 AM69 °FSunny.9 mph39%29.89 "Hg10 mi
8:54 AM66 °FSunny.13 mph45%29.87 "Hg10 mi
7:54 AM64 °FSunny.12 mph52%29.86 "Hg10 mi
6:54 AM63 °FClear.8 mph54%29.84 "Hg10 mi
5:54 AM65 °FClear.8 mph52%29.80 "Hg10 mi
4:54 AM65 °FClear.6 mph54%29.78 "Hg10 mi
3:54 AM64 °FClear.No wind56%29.79 "Hg10 mi
2:54 AM65 °FClear.6 mph54%29.78 "Hg10 mi
1:54 AM65 °FClear.5 mph52%29.77 "Hg10 mi
12:54 AM69 °FClear.9 mph44%29.77 "Hg10 mi
11:54 PM
Apr 17
69 °FClear.9 mph44%29.77 "Hg10 mi
10:54 PM71 °FClear.9 mph42%29.77 "Hg10 mi
9:54 PM75 °FClear.6 mph30%29.75 "Hg10 mi
8:54 PM78 °FClear.3 mph28%29.74 "Hg10 mi
7:54 PM80 °FSunny.3 mph29%29.73 "Hg10 mi
6:54 PM82 °FSunny.6 mph25%29.72 "Hg10 mi
Weather by CustomWeather, © 2014

See weather overview